Terminal Aerodrome Forecast
Issued by NWS Columbia, SC

Home | Current Version | Previous Version | Text Only | Print | Product List | Glossary On
Versions: 1 2 3 4 5 6 7 8 9 10 11 12 13 14 15 16 17 18 19 20 21 22 23 24 25 26 27 28
000
FTUS42 KCAE 310800 AAA
TAFCAE
TAF AMD
KCAE 310831Z 3109/0106 VRB03KT P6SM BKN100
     FM311000 VRB03KT P6SM SCT008 BKN100
      TEMPO 3111/3113 BKN008
     FM311300 VRB03KT 5SM BR BKN008
     FM311400 VRB04KT P6SM SCT015 BKN022
     FM311600 19005KT P6SM SCT030 BKN040=

USA.gov is the U.S. government's official web portal to all federal, state and local government web resources and services.